Tracking 25612 objects as of 19-May-2022
HD Live streaming from Space Station
objects crossing your sky now

COSMOS 2251 DEB

Track COSMOS 2251 DEB now!
10-day predictions


NORAD ID: 34610
Int'l Code: 1993-036WF
Perigee: 762.0 km
Apogee: 1,061.6 km
Inclination: 74.0 °
Period: 103.1 minutes
Semi major axis: 7282 km
RCS: 0.0054 m2 (small)
Launch date: June 16, 1993
Source: Commonwealth of Independent States (former USSR) (CIS)
Launch site: PLESETSK MISSILE AND SPACE COMPLEX (PKMTR)

Note: This is SATELLITE DEBRIS
aabbcc
Your satellite tracking list
Your tracking list is empty




NASA's NSSDC Master Catalog

Two Line Element Set (TLE):
1 34610U 93036WF  22138.36796621  .00002589  00000-0  15696-2 0  9994
2 34610  74.0272   7.8560 0205706  75.0432 287.3372 13.96862404672881
Source of the keplerian elements: AFSPC